Location: S�tio Afonso Gruber
(26.1760°S, 49.5250°W)
Time: 00:43:29
(UTC+00:00)

Intelsat 5-3 Rocket - Pass Details

Date: 07 October 2020
Orbit: 281 x 6111 km, 23.6° (Epoch: 22 October)

Event Time Altitude Azimuth Distance (km) Brightness Sun altitude
Exits shadow 05:20:44 67° 309° (NW) 4,705 6.5 -44.4°
Maximum altitude 05:24:39 71° 345° (NNW) 4,984 6.7 -43.7°
Drops below altitude 10° 06:06:29 10° 61° (ENE) 9,471 8.8 -35.9°
Sets 06:14:05 0° 63° (ENE) 10,143 9.1 -34.4°
